When you browse on this site, cookies collect data to enhance your experience and personalize the content and advertising you see.
Visit our Privacy Policy to learn more. By continuing to use the site, you agree to this use of cookies and data.
  • En España
  • Lista de países
  • Para 7 días
  • Temperatura del agua
  • Mapa Satelital
  • El tiempo en el mapa
  • Informadores
  • user-avatar
    Iniciar sesión

    Tiempo cada hora Elbasan

    Hoy, 19 Julio, Viernes

    Tiempo Temperatura Precipitaciones Viento Presión Humedad
    00:00 +21°C° 0 mm 1 mps 734 mmHg 74%
    01:00 +20°C° 0 mm 1 mps 734 mmHg 76%
    02:00 +20°C° 0 mm 1 mps 734 mmHg 75%
    03:00 +20°C° 0 mm 1 mps 734 mmHg 75%
    04:00 +20°C° 0 mm 1 mps 734 mmHg 74%
    05:00 +22°C° 0 mm 1 mps 735 mmHg 70%
    06:00 +23°C° 0 mm 1 mps 735 mmHg 65%
    07:00 +25°C° 0 mm 1 mps 735 mmHg 60%
    08:00 +27°C° 0.1 mm 1 mps 735 mmHg 54%
    09:00 +28°C° 0.1 mm 1 mps 735 mmHg 49%
    10:00 +30°C° 0.1 mm 1 mps 736 mmHg 43%
    11:00 +30°C° 0.2 mm 2 mps 736 mmHg 43%
    12:00 +30°C° 0.2 mm 2 mps 736 mmHg 43%
    13:00 +31°C° 0.2 mm 3 mps 736 mmHg 43%
    14:00 +30°C° 0.8 mm 3 mps 735 mmHg 48%
    15:00 +29°C° 0.8 mm 2 mps 735 mmHg 53%
    16:00 +28°C° 0.8 mm 2 mps 735 mmHg 58%
    17:00 +26°C° 1 mm 2 mps 735 mmHg 64%
    18:00 +24°C° 1 mm 1 mps 736 mmHg 71%
    19:00 +23°C° 1 mm 1 mps 736 mmHg 77%
    20:00 +22°C° 0.1 mm 1 mps 736 mmHg 77%
    21:00 +22°C° 0.1 mm 1 mps 736 mmHg 77%
    22:00 +21°C° 0.1 mm 1 mps 736 mmHg 76%
    23:00 +21°C° 0 mm 1 mps 736 mmHg 76%

    Mañana, 20 Julio, Sábado

    Tiempo Temperatura Precipitaciones Viento Presión Humedad
    00:00 +21°C° 0 mm 1 mps 736 mmHg 75%
    01:00 +21°C° 0 mm 1 mps 736 mmHg 75%
    02:00 +20°C° 0 mm 1 mps 736 mmHg 75%
    03:00 +20°C° 0 mm 1 mps 736 mmHg 74%
    04:00 +20°C° 0 mm 1 mps 736 mmHg 74%
    05:00 +22°C° 0 mm 1 mps 736 mmHg 69%
    06:00 +24°C° 0 mm 1 mps 737 mmHg 65%
    07:00 +25°C° 0 mm 1 mps 737 mmHg 61%
    08:00 +27°C° 0 mm 1 mps 737 mmHg 55%
    09:00 +29°C° 0 mm 1 mps 738 mmHg 48%
    10:00 +31°C° 0 mm 1 mps 738 mmHg 42%
    11:00 +31°C° 0 mm 1 mps 738 mmHg 41%
    12:00 +32°C° 0 mm 2 mps 738 mmHg 39%
    13:00 +32°C° 0 mm 2 mps 738 mmHg 38%
    14:00 +33°C° 0.1 mm 3 mps 738 mmHg 42%
    15:00 +31°C° 0.1 mm 3 mps 737 mmHg 46%
    16:00 +30°C° 0.1 mm 3 mps 737 mmHg 51%
    17:00 +28°C° 0.2 mm 2 mps 737 mmHg 56%
    18:00 +26°C° 0.2 mm 1 mps 737 mmHg 61%
    19:00 +25°C° 0.2 mm 1 mps 738 mmHg 67%
    20:00 +24°C° 0 mm 1 mps 738 mmHg 68%
    21:00 +23°C° 0 mm 1 mps 738 mmHg 69%
    22:00 +23°C° 0 mm 1 mps 738 mmHg 70%
    23:00 +23°C° 0 mm 1 mps 738 mmHg 71%

    Pasado mañana, 21 Julio, Domingo

    Tiempo Temperatura Precipitaciones Viento Presión Humedad
    00:00 +22°C° 0 mm 1 mps 738 mmHg 71%
    01:00 +22°C° 0 mm 1 mps 738 mmHg 71%
    02:00 +22°C° 0 mm 1 mps 738 mmHg 71%
    03:00 +22°C° 0 mm 1 mps 738 mmHg 71%
    04:00 +22°C° 0 mm 1 mps 738 mmHg 71%
    05:00 +23°C° 0 mm 1 mps 738 mmHg 66%
    06:00 +25°C° 0 mm 1 mps 738 mmHg 62%
    07:00 +27°C° 0 mm 1 mps 738 mmHg 58%
    08:00 +29°C° 0 mm 1 mps 739 mmHg 52%
    09:00 +31°C° 0 mm 1 mps 739 mmHg 46%
    10:00 +33°C° 0 mm 1 mps 739 mmHg 40%
    11:00 +33°C° 0 mm 1 mps 739 mmHg 38%
    12:00 +35°C° 0 mm 2 mps 739 mmHg 36%
    13:00 +36°C° 0 mm 3 mps 739 mmHg 34%
    14:00 +35°C° 0 mm 3 mps 738 mmHg 37%
    15:00 +34°C° 0 mm 3 mps 738 mmHg 40%
    16:00 +33°C° 0 mm 3 mps 738 mmHg 44%
    17:00 +30°C° 0 mm 2 mps 738 mmHg 50%
    18:00 +28°C° 0 mm 1 mps 738 mmHg 56%
    19:00 +26°C° 0 mm 1 mps 738 mmHg 62%
    20:00 +26°C° 0 mm 1 mps 738 mmHg 64%
    21:00 +25°C° 0 mm 1 mps 738 mmHg 65%
    22:00 +24°C° 0 mm 1 mps 738 mmHg 67%
    23:00 +24°C° 0 mm 1 mps 738 mmHg 67%

    22 Julio, Lunes

    Tiempo Temperatura Precipitaciones Viento Presión Humedad
    00:00 +24°C° 0 mm 1 mps 738 mmHg 67%
    01:00 +24°C° 0 mm 1 mps 738 mmHg 67%
    02:00 +24°C° 0 mm 1 mps 738 mmHg 67%
    03:00 +24°C° 0 mm 1 mps 738 mmHg 67%
    04:00 +23°C° 0 mm 1 mps 738 mmHg 66%
    05:00 +25°C° 0 mm 1 mps 738 mmHg 62%
    06:00 +27°C° 0 mm 1 mps 738 mmHg 58%
    07:00 +29°C° 0 mm 1 mps 738 mmHg 54%
    08:00 +30°C° 0 mm 1 mps 738 mmHg 48%
    09:00 +32°C° 0 mm 1 mps 738 mmHg 42%
    10:00 +34°C° 0 mm 1 mps 739 mmHg 35%
    11:00 +36°C° 0 mm 2 mps 738 mmHg 33%
    12:00 +36°C° 0 mm 2 mps 738 mmHg 31%
    13:00 +37°C° 0 mm 2 mps 738 mmHg 29%
    14:00 +36°C° 0 mm 2 mps 737 mmHg 31%
    15:00 +36°C° 0 mm 3 mps 737 mmHg 33%
    16:00 +35°C° 0 mm 3 mps 737 mmHg 35%
    17:00 +32°C° 0 mm 2 mps 737 mmHg 42%
    18:00 +30°C° 0 mm 2 mps 737 mmHg 48%
    19:00 +28°C° 0 mm 1 mps 736 mmHg 55%
    20:00 +27°C° 0 mm 1 mps 737 mmHg 56%
    21:00 +26°C° 0 mm 1 mps 737 mmHg 57%
    22:00 +26°C° 0 mm 1 mps 737 mmHg 58%
    23:00 +25°C° 0 mm 2 mps 737 mmHg 59%

    23 Julio, Martes

    Tiempo Temperatura Precipitaciones Viento Presión Humedad
    00:00 +25°C° 0 mm 2 mps 737 mmHg 59%
    01:00 +25°C° 0 mm 2 mps 736 mmHg 60%
    02:00 +25°C° 0 mm 2 mps 736 mmHg 62%
    03:00 +24°C° 0 mm 2 mps 736 mmHg 64%
    04:00 +24°C° 0 mm 2 mps 736 mmHg 65%
    05:00 +25°C° 0 mm 2 mps 736 mmHg 62%
    06:00 +27°C° 0 mm 2 mps 736 mmHg 59%
    07:00 +29°C° 0 mm 2 mps 736 mmHg 57%
    08:00 +30°C° 0 mm 2 mps 736 mmHg 51%
    09:00 +32°C° 0 mm 2 mps 736 mmHg 45%
    10:00 +34°C° 0 mm 1 mps 736 mmHg 39%
    11:00 +35°C° 0 mm 2 mps 736 mmHg 37%
    12:00 +36°C° 0 mm 2 mps 735 mmHg 34%
    13:00 +37°C° 0 mm 2 mps 735 mmHg 32%
    14:00 +36°C° 0 mm 3 mps 735 mmHg 33%
    15:00 +35°C° 0 mm 3 mps 734 mmHg 34%
    16:00 +35°C° 0 mm 4 mps 734 mmHg 36%
    17:00 +31°C° 0 mm 3 mps 734 mmHg 42%
    18:00 +29°C° 0 mm 2 mps 734 mmHg 48%
    19:00 +27°C° 0 mm 1 mps 734 mmHg 55%
    20:00 +26°C° 0 mm 2 mps 734 mmHg 56%
    21:00 +25°C° 0 mm 2 mps 734 mmHg 57%
    22:00 +25°C° 0 mm 2 mps 735 mmHg 58%
    23:00 +24°C° 0 mm 2 mps 734 mmHg 58%

    24 Julio, Miércoles

    Tiempo Temperatura Precipitaciones Viento Presión Humedad
    00:00 +24°C° 0 mm 3 mps 734 mmHg 58%
    01:00 +22°C° 0 mm 3 mps 734 mmHg 57%
    02:00 +22°C° 0 mm 3 mps 734 mmHg 59%
    03:00 +21°C° 0 mm 3 mps 734 mmHg 61%
    04:00 +21°C° 0 mm 3 mps 734 mmHg 63%
    05:00 +22°C° 0 mm 3 mps 734 mmHg 60%
    06:00 +24°C° 0 mm 3 mps 734 mmHg 57%
    07:00 +26°C° 0 mm 3 mps 735 mmHg 54%
    08:00 +27°C° 0 mm 3 mps 735 mmHg 48%
    09:00 +29°C° 0 mm 3 mps 735 mmHg 42%
    10:00 +31°C° 0 mm 3 mps 735 mmHg 36%
    11:00 +33°C° 0 mm 3 mps 735 mmHg 34%
    12:00 +33°C° 0 mm 3 mps 735 mmHg 32%
    13:00 +34°C° 0 mm 3 mps 735 mmHg 31%
    14:00 +34°C° 0 mm 3 mps 735 mmHg 31%
    15:00 +34°C° 0 mm 3 mps 734 mmHg 32%
    16:00 +34°C° 0 mm 3 mps 734 mmHg 32%
    17:00 +30°C° 0 mm 2 mps 734 mmHg 39%
    18:00 +28°C° 0 mm 2 mps 734 mmHg 45%
    19:00 +26°C° 0 mm 2 mps 734 mmHg 51%
    20:00 +25°C° 0 mm 2 mps 735 mmHg 52%
    21:00 +24°C° 0 mm 2 mps 735 mmHg 53%
    22:00 +23°C° 0 mm 2 mps 735 mmHg 54%
    23:00 +22°C° 0 mm 3 mps 735 mmHg 54%
    Mostrar más